Time,TemperatureF,DewpointF,PressureIn,WindDirection,WindDirectionDegrees,WindSpeedMPH,WindSpeedGustMPH,Humidity,HourlyPrecipIn,Conditions,Clouds,dailyrainin,SoftwareType,DateUTC
2013-05-02 00:01:00,54.5,39.1,30.37,ESE,102,0.0,0.0,56,0.00,,,0.00,Wunderground v.1.15,2013-05-02 04:01:00,
2013-05-02 00:05:00,54.5,39.6,30.37,ESE,102,0.0,0.0,57,0.00,,,0.00,Wunderground v.1.15,2013-05-02 04:05:00,
2013-05-02 00:07:00,54.3,39.8,30.37,ESE,102,0.0,0.0,58,0.00,,,0.00,Wunderground v.1.15,2013-05-02 04:07:00,
2013-05-02 00:09:00,54.2,39.3,30.37,ESE,102,0.0,0.0,57,0.00,,,0.00,Wunderground v.1.15,2013-05-02 04:09:00,
2013-05-02 00:15:00,53.9,38.6,30.37,ESE,102,0.0,0.0,56,0.00,,,0.00,Wunderground v.1.15,2013-05-02 04:15:00,
2013-05-02 00:17:00,53.9,39.0,30.37,ESE,102,0.0,0.0,57,0.00,,,0.00,Wunderground v.1.15,2013-05-02 04:17:00,
2013-05-02 00:23:00,54.0,39.5,30.37,ESE,102,0.0,2.0,58,0.00,,,0.00,Wunderground v.1.15,2013-05-02 04:23:00,
2013-05-02 00:29:00,54.0,40.0,30.37,ESE,102,0.0,0.0,59,0.00,,,0.00,Wunderground v.1.15,2013-05-02 04:29:00,
2013-05-02 00:35:00,53.6,37.8,30.37,ESE,103,0.0,3.0,55,0.00,,,0.00,Wunderground v.1.15,2013-05-02 04:35:00,
2013-05-02 00:41:00,54.0,38.6,30.36,ESE,110,1.0,1.0,56,0.00,,,0.00,Wunderground v.1.15,2013-05-02 04:41:00,
2013-05-02 00:47:00,54.1,38.3,30.37,ESE,110,0.0,3.0,55,0.00,,,0.00,Wunderground v.1.15,2013-05-02 04:47:00,
2013-05-02 00:53:00,53.9,38.6,30.37,ESE,112,1.0,2.0,56,0.00,,,0.00,Wunderground v.1.15,2013-05-02 04:53:00,
2013-05-02 00:59:00,53.6,38.3,30.37,ESE,113,1.0,1.0,56,0.00,,,0.00,Wunderground v.1.15,2013-05-02 04:59:00,
2013-05-02 01:05:00,53.4,38.1,30.37,ESE,109,0.0,1.0,56,0.00,,,0.00,Wunderground v.1.15,2013-05-02 05:05:00,
2013-05-02 01:11:00,53.4,38.5,30.37,ESE,109,0.0,1.0,57,0.00,,,0.00,Wunderground v.1.15,2013-05-02 05:11:00,
2013-05-02 01:17:00,53.3,38.9,30.38,ESE,113,0.0,1.0,58,0.00,,,0.00,Wunderground v.1.15,2013-05-02 05:17:00,
2013-05-02 01:23:00,53.2,37.9,30.37,ESE,113,0.0,0.0,56,0.00,,,0.00,Wunderground v.1.15,2013-05-02 05:23:00,
2013-05-02 01:29:00,53.4,37.6,30.38,ESE,113,0.0,0.0,55,0.00,,,0.00,Wunderground v.1.15,2013-05-02 05:29:00,
2013-05-02 01:35:00,53.5,37.7,30.38,ESE,113,0.0,0.0,55,0.00,,,0.00,Wunderground v.1.15,2013-05-02 05:35:00,
2013-05-02 01:41:00,53.6,37.3,30.38,ESE,113,0.0,0.0,54,0.00,,,0.00,Wunderground v.1.15,2013-05-02 05:41:00,
2013-05-02 01:47:00,53.9,37.1,30.38,ESE,113,0.0,1.0,53,0.00,,,0.00,Wunderground v.1.15,2013-05-02 05:47:00,
2013-05-02 01:53:00,54.1,37.8,30.38,ESE,113,0.0,0.0,54,0.00,,,0.00,Wunderground v.1.15,2013-05-02 05:53:00,
2013-05-02 01:59:00,54.1,38.7,30.38,ESE,106,0.0,0.0,56,0.00,,,0.00,Wunderground v.1.15,2013-05-02 05:59:00,
2013-05-02 02:05:00,53.7,37.9,30.38,ESE,106,0.0,0.0,55,0.00,,,0.00,Wunderground v.1.15,2013-05-02 06:05:00,
2013-05-02 02:11:00,53.2,37.4,30.38,ESE,106,0.0,0.0,55,0.00,,,0.00,Wunderground v.1.15,2013-05-02 06:11:00,
2013-05-02 02:17:00,53.1,37.3,30.38,ESE,106,0.0,2.0,55,0.00,,,0.00,Wunderground v.1.15,2013-05-02 06:17:00,
2013-05-02 02:23:00,53.0,37.7,30.38,ESE,106,0.0,0.0,56,0.00,,,0.00,Wunderground v.1.15,2013-05-02 06:23:00,
2013-05-02 02:29:00,53.0,37.7,30.38,ESE,108,0.0,2.0,56,0.00,,,0.00,Wunderground v.1.15,2013-05-02 06:29:00,
2013-05-02 02:35:00,52.8,38.0,30.38,ESE,109,1.0,3.0,57,0.00,,,0.00,Wunderground v.1.15,2013-05-02 06:35:00,
2013-05-02 02:41:00,52.6,37.8,30.38,ESE,109,0.0,1.0,57,0.00,,,0.00,Wunderground v.1.15,2013-05-02 06:41:00,
2013-05-02 02:47:00,52.4,37.6,30.38,ESE,109,0.0,1.0,57,0.00,,,0.00,Wunderground v.1.15,2013-05-02 06:47:00,
2013-05-02 02:53:00,52.1,37.3,30.38,ESE,109,0.0,1.0,57,0.00,,,0.00,Wunderground v.1.15,2013-05-02 06:53:00,
2013-05-02 02:59:00,52.0,37.2,30.38,ESE,109,0.0,0.0,57,0.00,,,0.00,Wunderground v.1.15,2013-05-02 06:59:00,
2013-05-02 03:05:00,51.9,37.1,30.38,ESE,109,0.0,0.0,57,0.00,,,0.00,Wunderground v.1.15,2013-05-02 07:05:00,
2013-05-02 03:11:00,51.9,36.7,30.38,ESE,109,0.0,0.0,56,0.00,,,0.00,Wunderground v.1.15,2013-05-02 07:11:00,
2013-05-02 03:17:00,52.1,36.9,30.38,ESE,109,0.0,0.0,56,0.00,,,0.00,Wunderground v.1.15,2013-05-02 07:17:00,
2013-05-02 03:23:00,52.2,37.0,30.39,ESE,109,0.0,0.0,56,0.00,,,0.00,Wunderground v.1.15,2013-05-02 07:23:00,
2013-05-02 03:29:00,52.1,37.3,30.39,ESE,109,0.0,0.0,57,0.00,,,0.00,Wunderground v.1.15,2013-05-02 07:29:00,
2013-05-02 03:35:00,51.7,37.8,30.39,ESE,109,0.0,0.0,59,0.00,,,0.00,Wunderground v.1.15,2013-05-02 07:35:00,
2013-05-02 03:41:00,51.3,38.7,30.39,ESE,109,0.0,0.0,62,0.00,,,0.00,Wunderground v.1.15,2013-05-02 07:41:00,
2013-05-02 03:47:00,50.8,40.2,30.39,ESE,109,0.0,0.0,67,0.00,,,0.00,Wunderground v.1.15,2013-05-02 07:47:00,
2013-05-02 03:53:00,50.1,39.6,30.39,ESE,109,0.0,0.0,67,0.00,,,0.00,Wunderground v.1.15,2013-05-02 07:53:00,
2013-05-02 03:59:00,49.4,38.9,30.39,ESE,109,0.0,0.0,67,0.00,,,0.00,Wunderground v.1.15,2013-05-02 07:59:00,
2013-05-02 04:05:00,48.7,38.6,30.39,ESE,109,0.0,0.0,68,0.00,,,0.00,Wunderground v.1.15,2013-05-02 08:05:00,
2013-05-02 04:11:00,48.2,39.2,30.39,ESE,109,0.0,0.0,71,0.00,,,0.00,Wunderground v.1.15,2013-05-02 08:11:00,
2013-05-02 04:17:00,47.8,38.5,30.40,ESE,109,0.0,0.0,70,0.00,,,0.00,Wunderground v.1.15,2013-05-02 08:17:00,
2013-05-02 04:23:00,47.8,38.1,30.40,ESE,109,0.0,0.0,69,0.00,,,0.00,Wunderground v.1.15,2013-05-02 08:23:00,
2013-05-02 04:29:00,47.7,38.0,30.40,ESE,109,0.0,0.0,69,0.00,,,0.00,Wunderground v.1.15,2013-05-02 08:29:00,
2013-05-02 04:35:00,47.5,38.6,30.40,ESE,109,0.0,0.0,71,0.00,,,0.00,Wunderground v.1.15,2013-05-02 08:35:00,
2013-05-02 04:41:00,47.2,38.6,30.40,ESE,109,0.0,0.0,72,0.00,,,0.00,Wunderground v.1.15,2013-05-02 08:41:00,
2013-05-02 04:47:00,46.8,38.6,30.40,ESE,109,0.0,0.0,73,0.00,,,0.00,Wunderground v.1.15,2013-05-02 08:47:00,
2013-05-02 04:53:00,46.3,38.5,30.40,ESE,109,0.0,0.0,74,0.00,,,0.00,Wunderground v.1.15,2013-05-02 08:53:00,
2013-05-02 04:59:00,45.8,38.7,30.40,ESE,109,0.0,0.0,76,0.00,,,0.00,Wunderground v.1.15,2013-05-02 08:59:00,
2013-05-02 05:05:00,45.4,38.3,30.40,ESE,109,0.0,0.0,76,0.00,,,0.00,Wunderground v.1.15,2013-05-02 09:05:00,
2013-05-02 05:11:00,45.2,38.4,30.40,ESE,109,0.0,0.0,77,0.00,,,0.00,Wunderground v.1.15,2013-05-02 09:11:00,
2013-05-02 05:17:00,45.0,38.2,30.40,ESE,109,0.0,0.0,77,0.00,,,0.00,Wunderground v.1.15,2013-05-02 09:17:00,
2013-05-02 05:23:00,44.8,38.0,30.40,ESE,109,0.0,0.0,77,0.00,,,0.00,Wunderground v.1.15,2013-05-02 09:23:00,
2013-05-02 05:29:00,44.6,38.2,30.40,ESE,109,0.0,0.0,78,0.00,,,0.00,Wunderground v.1.15,2013-05-02 09:29:00,
2013-05-02 05:35:00,44.5,38.1,30.40,ESE,109,0.0,0.0,78,0.00,,,0.00,Wunderground v.1.15,2013-05-02 09:35:00,
2013-05-02 05:41:00,44.3,38.2,30.40,ESE,109,0.0,0.0,79,0.00,,,0.00,Wunderground v.1.15,2013-05-02 09:41:00,
2013-05-02 05:47:00,44.1,38.0,30.40,ESE,109,0.0,0.0,79,0.00,,,0.00,Wunderground v.1.15,2013-05-02 09:47:00,
2013-05-02 05:53:00,44.0,38.2,30.40,ESE,109,0.0,0.0,80,0.00,,,0.00,Wunderground v.1.15,2013-05-02 09:53:00,
2013-05-02 05:59:00,43.9,38.1,30.40,ESE,110,0.0,0.0,80,0.00,,,0.00,Wunderground v.1.15,2013-05-02 09:59:00,
2013-05-02 06:05:00,43.9,37.8,30.41,ESE,110,0.0,0.0,79,0.00,,,0.00,Wunderground v.1.15,2013-05-02 10:05:00,
2013-05-02 06:11:00,44.0,37.9,30.41,ESE,110,0.0,0.0,79,0.00,,,0.00,Wunderground v.1.15,2013-05-02 10:11:00,
2013-05-02 06:17:00,44.0,37.9,30.40,ESE,110,0.0,0.0,79,0.00,,,0.00,Wunderground v.1.15,2013-05-02 10:17:00,
2013-05-02 06:23:00,44.1,37.7,30.41,ESE,110,0.0,0.0,78,0.00,,,0.00,Wunderground v.1.15,2013-05-02 10:23:00,
2013-05-02 06:29:00,44.2,37.8,30.42,ESE,110,0.0,0.0,78,0.00,,,0.00,Wunderground v.1.15,2013-05-02 10:29:00,
2013-05-02 06:35:00,44.5,38.4,30.42,ESE,110,0.0,0.0,79,0.00,,,0.00,Wunderground v.1.15,2013-05-02 10:35:00,
2013-05-02 06:41:00,44.8,39.0,30.42,ESE,110,0.0,0.0,80,0.00,,,0.00,Wunderground v.1.15,2013-05-02 10:41:00,
2013-05-02 06:47:00,44.9,39.1,30.42,ESE,110,0.0,0.0,80,0.00,,,0.00,Wunderground v.1.15,2013-05-02 10:47:00,
2013-05-02 06:53:00,45.1,39.0,30.42,ESE,110,0.0,0.0,79,0.00,,,0.00,Wunderground v.1.15,2013-05-02 10:53:00,
2013-05-02 06:59:00,45.5,39.7,30.42,ESE,110,0.0,0.0,80,0.00,,,0.00,Wunderground v.1.15,2013-05-02 10:59:00,
2013-05-02 07:05:00,46.3,40.5,30.42,ESE,110,0.0,2.0,80,0.00,,,0.00,Wunderground v.1.15,2013-05-02 11:05:00,
2013-05-02 07:11:00,47.0,40.8,30.43,ESE,111,1.0,1.0,79,0.00,,,0.00,Wunderground v.1.15,2013-05-02 11:11:00,
2013-05-02 07:17:00,47.8,41.3,30.43,ESE,111,1.0,2.0,78,0.00,,,0.00,Wunderground v.1.15,2013-05-02 11:17:00,
2013-05-02 07:23:00,48.7,41.5,30.43,ESE,111,1.0,1.0,76,0.00,,,0.00,Wunderground v.1.15,2013-05-02 11:23:00,
2013-05-02 07:29:00,49.5,41.6,30.43,ESE,111,0.0,0.0,74,0.00,,,0.00,Wunderground v.1.15,2013-05-02 11:29:00,
2013-05-02 07:37:00,50.5,41.8,30.43,ESE,113,0.0,1.0,72,0.00,,,0.00,Wunderground v.1.15,2013-05-02 11:37:00,
2013-05-02 07:43:00,51.4,42.7,30.43,ESE,113,1.0,2.0,72,0.00,,,0.00,Wunderground v.1.15,2013-05-02 11:43:00,
2013-05-02 07:49:00,52.3,42.8,30.43,ESE,118,1.0,1.0,70,0.00,,,0.00,Wunderground v.1.15,2013-05-02 11:49:00,
2013-05-02 07:55:00,53.1,43.2,30.44,ESE,119,0.0,1.0,69,0.00,,,0.00,Wunderground v.1.15,2013-05-02 11:55:00,
2013-05-02 08:01:00,54.0,43.3,30.44,ESE,122,1.0,4.0,67,0.00,,,0.00,Wunderground v.1.15,2013-05-02 12:01:00,
2013-05-02 08:07:00,55.2,43.6,30.44,SE,124,1.0,4.0,65,0.00,,,0.00,Wunderground v.1.15,2013-05-02 12:07:00,
2013-05-02 08:13:00,56.6,44.1,30.44,SE,124,1.0,1.0,63,0.00,,,0.00,Wunderground v.1.15,2013-05-02 12:13:00,
2013-05-02 08:19:00,57.8,44.4,30.44,SE,124,1.0,1.0,61,0.00,,,0.00,Wunderground v.1.15,2013-05-02 12:19:00,
2013-05-02 08:25:00,59.0,45.6,30.44,SE,126,1.0,3.0,61,0.00,,,0.00,Wunderground v.1.15,2013-05-02 12:25:00,
2013-05-02 08:31:00,59.8,44.5,30.44,SE,132,1.0,1.0,57,0.00,,,0.00,Wunderground v.1.15,2013-05-02 12:31:00,
2013-05-02 08:37:00,60.6,43.4,30.44,SE,132,1.0,1.0,53,0.00,,,0.00,Wunderground v.1.15,2013-05-02 12:37:00,
2013-05-02 08:43:00,61.3,44.5,30.44,SE,134,1.0,4.0,54,0.00,,,0.00,Wunderground v.1.15,2013-05-02 12:43:00,
2013-05-02 08:49:00,61.8,44.5,30.44,SE,146,2.0,3.0,53,0.00,,,0.00,Wunderground v.1.15,2013-05-02 12:49:00,
2013-05-02 08:55:00,62.0,44.2,30.44,SE,134,3.0,3.0,52,0.00,,,0.00,Wunderground v.1.15,2013-05-02 12:55:00,
2013-05-02 09:01:00,62.1,45.7,30.45,SSE,168,3.0,5.0,55,0.00,,,0.00,Wunderground v.1.15,2013-05-02 13:01:00,
2013-05-02 09:07:00,62.5,45.1,30.45,SSE,167,2.0,5.0,53,0.00,,,0.00,Wunderground v.1.15,2013-05-02 13:07:00,
2013-05-02 09:13:00,63.3,45.9,30.44,SSE,164,1.0,4.0,53,0.00,,,0.00,Wunderground v.1.15,2013-05-02 13:13:00,
2013-05-02 09:19:00,63.9,45.4,30.44,SSE,158,1.0,3.0,51,0.00,,,0.00,Wunderground v.1.15,2013-05-02 13:19:00,
2013-05-02 09:25:00,64.5,45.4,30.44,South,187,1.0,3.0,50,0.00,,,0.00,Wunderground v.1.15,2013-05-02 13:25:00,
2013-05-02 09:31:00,65.0,45.9,30.44,South,188,1.0,1.0,50,0.00,,,0.00,Wunderground v.1.15,2013-05-02 13:31:00,
2013-05-02 09:37:00,65.6,48.5,30.44,SSE,163,1.0,2.0,54,0.00,,,0.00,Wunderground v.1.15,2013-05-02 13:37:00,
2013-05-02 09:43:00,66.2,47.5,30.44,SSE,167,1.0,3.0,51,0.00,,,0.00,Wunderground v.1.15,2013-05-02 13:43:00,
2013-05-02 09:49:00,66.2,46.5,30.44,SSE,164,2.0,2.0,49,0.00,,,0.00,Wunderground v.1.15,2013-05-02 13:49:00,
2013-05-02 09:55:00,66.3,46.6,30.44,SSE,167,1.0,4.0,49,0.00,,,0.00,Wunderground v.1.15,2013-05-02 13:55:00,
2013-05-02 10:01:00,66.9,47.6,30.44,SSE,163,1.0,1.0,50,0.00,,,0.00,Wunderground v.1.15,2013-05-02 14:01:00,
2013-05-02 10:07:00,67.4,47.0,30.44,SSE,165,1.0,3.0,48,0.00,,,0.00,Wunderground v.1.15,2013-05-02 14:07:00,
2013-05-02 10:13:00,67.5,47.1,30.44,SSE,165,1.0,2.0,48,0.00,,,0.00,Wunderground v.1.15,2013-05-02 14:13:00,
2013-05-02 10:19:00,67.8,46.8,30.45,SSE,165,1.0,1.0,47,0.00,,,0.00,Wunderground v.1.15,2013-05-02 14:19:00,
2013-05-02 10:25:00,68.1,48.8,30.44,SSE,165,1.0,2.0,50,0.00,,,0.00,Wunderground v.1.15,2013-05-02 14:25:00,
2013-05-02 10:31:00,68.2,48.8,30.44,SSE,165,1.0,4.0,50,0.00,,,0.00,Wunderground v.1.15,2013-05-02 14:31:00,
2013-05-02 10:37:00,68.4,48.5,30.44,SSE,165,1.0,4.0,49,0.00,,,0.00,Wunderground v.1.15,2013-05-02 14:37:00,
2013-05-02 10:43:00,68.7,48.2,30.43,SW,229,2.0,3.0,48,0.00,,,0.00,Wunderground v.1.15,2013-05-02 14:43:00,
2013-05-02 10:49:00,69.1,48.6,30.43,WSW,254,2.0,2.0,48,0.00,,,0.00,Wunderground v.1.15,2013-05-02 14:49:00,
2013-05-02 10:55:00,69.6,49.6,30.43,WSW,254,0.0,2.0,49,0.00,,,0.00,Wunderground v.1.15,2013-05-02 14:55:00,
2013-05-02 11:01:00,70.0,47.7,30.43,WSW,253,1.0,1.0,45,0.00,,,0.00,Wunderground v.1.15,2013-05-02 15:01:00,
2013-05-02 11:07:00,70.6,51.1,30.43,West,267,1.0,4.0,50,0.00,,,0.00,Wunderground v.1.15,2013-05-02 15:07:00,
2013-05-02 11:13:00,71.1,49.8,30.43,West,274,2.0,4.0,47,0.00,,,0.00,Wunderground v.1.15,2013-05-02 15:13:00,
2013-05-02 11:19:00,71.4,47.1,30.43,ESE,106,1.0,2.0,42,0.00,,,0.00,Wunderground v.1.15,2013-05-02 15:19:00,
2013-05-02 11:25:00,71.8,48.1,30.43,SE,146,1.0,2.0,43,0.00,,,0.00,Wunderground v.1.15,2013-05-02 15:25:00,
2013-05-02 11:31:00,72.1,50.2,30.42,East,101,1.0,2.0,46,0.00,,,0.00,Wunderground v.1.15,2013-05-02 15:31:00,
2013-05-02 11:37:00,72.4,46.7,30.42,SE,138,1.0,2.0,40,0.00,,,0.00,Wunderground v.1.15,2013-05-02 15:37:00,
2013-05-02 11:43:00,72.8,51.4,30.42,South,173,1.0,1.0,47,0.00,,,0.00,Wunderground v.1.15,2013-05-02 15:43:00,
2013-05-02 11:49:00,72.9,45.1,30.41,South,187,1.0,1.0,37,0.00,,,0.00,Wunderground v.1.15,2013-05-02 15:49:00,
2013-05-02 11:55:00,72.9,44.4,30.41,South,190,1.0,2.0,36,0.00,,,0.00,Wunderground v.1.15,2013-05-02 15:55:00,
2013-05-02 12:01:00,73.2,45.4,30.41,SE,143,1.0,3.0,37,0.00,,,0.00,Wunderground v.1.15,2013-05-02 16:01:00,
2013-05-02 12:07:00,73.3,50.7,30.40,NE,54,1.0,3.0,45,0.00,,,0.00,Wunderground v.1.15,2013-05-02 16:07:00,
2013-05-02 12:13:00,73.6,49.1,30.40,East,86,1.0,3.0,42,0.00,,,0.00,Wunderground v.1.15,2013-05-02 16:13:00,
2013-05-02 12:19:00,73.1,48.0,30.40,SE,141,1.0,1.0,41,0.00,,,0.00,Wunderground v.1.15,2013-05-02 16:19:00,
2013-05-02 12:25:00,73.8,45.9,30.40,SSE,166,1.0,2.0,37,0.00,,,0.00,Wunderground v.1.15,2013-05-02 16:25:00,
2013-05-02 12:31:00,74.7,51.3,30.40,WSW,247,1.0,2.0,44,0.00,,,0.00,Wunderground v.1.15,2013-05-02 16:31:00,
2013-05-02 12:37:00,75.7,50.3,30.39,WNW,287,2.0,4.0,41,0.00,,,0.00,Wunderground v.1.15,2013-05-02 16:37:00,
2013-05-02 12:43:00,75.1,53.5,30.39,WSW,249,1.0,3.0,47,0.00,,,0.00,Wunderground v.1.15,2013-05-02 16:43:00,
2013-05-02 12:49:00,75.7,54.0,30.39,West,263,1.0,1.0,47,0.00,,,0.00,Wunderground v.1.15,2013-05-02 16:49:00,
2013-05-02 12:55:00,75.1,49.8,30.38,SE,130,2.0,4.0,41,0.00,,,0.00,Wunderground v.1.15,2013-05-02 16:55:00,
2013-05-02 13:01:00,76.1,50.0,30.38,WNW,286,3.0,6.0,40,0.00,,,0.00,Wunderground v.1.15,2013-05-02 17:01:00,
2013-05-02 13:07:00,76.6,47.6,30.38,WSW,239,2.0,6.0,36,0.00,,,0.00,Wunderground v.1.15,2013-05-02 17:07:00,
2013-05-02 13:13:00,77.0,51.5,30.38,SW,227,1.0,2.0,41,0.00,,,0.00,Wunderground v.1.15,2013-05-02 17:13:00,
2013-05-02 13:19:00,76.7,45.4,30.38,SE,130,2.0,2.0,33,0.00,,,0.00,Wunderground v.1.15,2013-05-02 17:19:00,
2013-05-02 13:25:00,77.1,45.8,30.37,SSE,165,2.0,2.0,33,0.00,,,0.00,Wunderground v.1.15,2013-05-02 17:25:00,
2013-05-02 13:31:00,76.4,46.7,30.37,SE,126,1.0,1.0,35,0.00,,,0.00,Wunderground v.1.15,2013-05-02 17:31:00,
2013-05-02 13:37:00,77.0,45.7,30.37,ENE,61,1.0,3.0,33,0.00,,,0.00,Wunderground v.1.15,2013-05-02 17:37:00,
2013-05-02 13:43:00,76.9,42.2,30.37,NE,36,2.0,2.0,29,0.00,,,0.00,Wunderground v.1.15,2013-05-02 17:43:00,
2013-05-02 13:49:00,77.1,52.2,30.37,North,355,2.0,2.0,42,0.00,,,0.00,Wunderground v.1.15,2013-05-02 17:49:00,
2013-05-02 13:55:00,78.7,45.5,30.36,NNW,340,1.0,2.0,31,0.00,,,0.00,Wunderground v.1.15,2013-05-02 17:55:00,
2013-05-02 14:01:00,79.7,51.8,30.36,NNW,327,0.0,1.0,38,0.00,,,0.00,Wunderground v.1.15,2013-05-02 18:01:00,
2013-05-02 14:07:00,79.7,48.8,30.35,NW,304,1.0,2.0,34,0.00,,,0.00,Wunderground v.1.15,2013-05-02 18:07:00,
2013-05-02 14:13:00,79.3,50.0,30.35,NW,310,1.0,4.0,36,0.00,,,0.00,Wunderground v.1.15,2013-05-02 18:13:00,
2013-05-02 14:19:00,79.0,48.2,30.35,NW,311,1.0,1.0,34,0.00,,,0.00,Wunderground v.1.15,2013-05-02 18:19:00,
2013-05-02 14:25:00,79.6,43.6,30.35,North,355,1.0,1.0,28,0.00,,,0.00,Wunderground v.1.15,2013-05-02 18:25:00,
2013-05-02 14:31:00,79.7,45.5,30.34,SW,225,1.0,3.0,30,0.00,,,0.00,Wunderground v.1.15,2013-05-02 18:31:00,
2013-05-02 14:37:00,80.0,45.8,30.35,SE,136,2.0,4.0,30,0.00,,,0.00,Wunderground v.1.15,2013-05-02 18:37:00,
2013-05-02 14:43:00,80.0,45.8,30.34,SSE,160,1.0,1.0,30,0.00,,,0.00,Wunderground v.1.15,2013-05-02 18:43:00,
2013-05-02 14:49:00,79.6,42.7,30.34,South,185,2.0,2.0,27,0.00,,,0.00,Wunderground v.1.15,2013-05-02 18:49:00,
2013-05-02 14:55:00,79.3,48.5,30.34,SSW,194,2.0,6.0,34,0.00,,,0.00,Wunderground v.1.15,2013-05-02 18:55:00,
2013-05-02 15:01:00,79.3,46.0,30.33,WSW,243,3.0,3.0,31,0.00,,,0.00,Wunderground v.1.15,2013-05-02 19:01:00,
2013-05-02 15:07:00,79.4,45.3,30.33,WSW,252,1.0,3.0,30,0.00,,,0.00,Wunderground v.1.15,2013-05-02 19:07:00,
2013-05-02 15:13:00,80.2,45.1,30.33,South,183,1.0,4.0,29,0.00,,,0.00,Wunderground v.1.15,2013-05-02 19:13:00,
2013-05-02 15:19:00,80.3,45.1,30.33,SE,124,2.0,2.0,29,0.00,,,0.00,Wunderground v.1.15,2013-05-02 19:19:00,
2013-05-02 15:25:00,80.3,49.4,30.33,South,191,2.0,6.0,34,0.00,,,0.00,Wunderground v.1.15,2013-05-02 19:25:00,
2013-05-02 15:31:00,80.6,49.6,30.32,SW,216,2.0,2.0,34,0.00,,,0.00,Wunderground v.1.15,2013-05-02 19:31:00,
2013-05-02 15:37:00,81.0,47.5,30.32,ENE,67,0.0,4.0,31,0.00,,,0.00,Wunderground v.1.15,2013-05-02 19:37:00,
2013-05-02 15:43:00,80.5,44.4,30.32,ESE,105,1.0,3.0,28,0.00,,,0.00,Wunderground v.1.15,2013-05-02 19:43:00,
2013-05-02 15:49:00,80.6,46.3,30.32,ESE,108,1.0,1.0,30,0.00,,,0.00,Wunderground v.1.15,2013-05-02 19:49:00,
2013-05-02 15:55:00,81.1,46.7,30.31,East,92,1.0,1.0,30,0.00,,,0.00,Wunderground v.1.15,2013-05-02 19:55:00,
2013-05-02 16:01:00,80.6,46.3,30.31,South,187,2.0,5.0,30,0.00,,,0.00,Wunderground v.1.15,2013-05-02 20:01:00,
2013-05-02 16:07:00,80.3,46.9,30.31,NW,306,1.0,5.0,31,0.00,,,0.00,Wunderground v.1.15,2013-05-02 20:07:00,
2013-05-02 16:13:00,80.6,46.3,30.30,SW,231,2.0,4.0,30,0.00,,,0.00,Wunderground v.1.15,2013-05-02 20:13:00,
2013-05-02 16:19:00,80.7,46.4,30.30,SW,232,3.0,3.0,30,0.00,,,0.00,Wunderground v.1.15,2013-05-02 20:19:00,
2013-05-02 16:25:00,79.8,42.8,30.30,WSW,238,2.0,3.0,27,0.00,,,0.00,Wunderground v.1.15,2013-05-02 20:25:00,
2013-05-02 16:31:00,80.0,48.3,30.30,West,262,0.0,5.0,33,0.00,,,0.00,Wunderground v.1.15,2013-05-02 20:31:00,
2013-05-02 16:37:00,79.9,47.4,30.30,West,273,2.0,5.0,32,0.00,,,0.00,Wunderground v.1.15,2013-05-02 20:37:00,
2013-05-02 16:43:00,80.2,48.5,30.29,WSW,242,2.0,3.0,33,0.00,,,0.00,Wunderground v.1.15,2013-05-02 20:43:00,
2013-05-02 16:49:00,79.7,46.4,30.29,WSW,257,2.0,2.0,31,0.00,,,0.00,Wunderground v.1.15,2013-05-02 20:49:00,
2013-05-02 16:55:00,78.8,49.6,30.29,West,277,1.0,3.0,36,0.00,,,0.00,Wunderground v.1.15,2013-05-02 20:55:00,
2013-05-02 17:01:00,78.6,51.6,30.29,WSW,241,1.0,2.0,39,0.00,,,0.00,Wunderground v.1.15,2013-05-02 21:01:00,
2013-05-02 17:07:00,78.4,46.1,30.29,SW,225,1.0,3.0,32,0.00,,,0.00,Wunderground v.1.15,2013-05-02 21:07:00,
2013-05-02 17:13:00,78.3,48.4,30.28,WSW,250,2.0,2.0,35,0.00,,,0.00,Wunderground v.1.15,2013-05-02 21:13:00,
2013-05-02 17:19:00,78.0,45.7,30.28,WSW,257,1.0,1.0,32,0.00,,,0.00,Wunderground v.1.15,2013-05-02 21:19:00,
2013-05-02 17:25:00,77.8,47.9,30.28,West,259,0.0,1.0,35,0.00,,,0.00,Wunderground v.1.15,2013-05-02 21:25:00,
2013-05-02 17:31:00,77.5,46.1,30.28,NNE,22,0.0,0.0,33,0.00,,,0.00,Wunderground v.1.15,2013-05-02 21:31:00,
2013-05-02 17:37:00,77.4,47.6,30.27,NNE,22,0.0,0.0,35,0.00,,,0.00,Wunderground v.1.15,2013-05-02 21:37:00,
2013-05-02 17:43:00,77.3,43.4,30.28,NNE,22,1.0,1.0,30,0.00,,,0.00,Wunderground v.1.15,2013-05-02 21:43:00,
2013-05-02 17:49:00,77.3,45.1,30.28,NNE,22,0.0,2.0,32,0.00,,,0.00,Wunderground v.1.15,2013-05-02 21:49:00,
2013-05-02 17:55:00,77.4,44.4,30.27,WNW,298,1.0,2.0,31,0.00,,,0.00,Wunderground v.1.15,2013-05-02 21:55:00,
2013-05-02 18:01:00,77.4,45.2,30.27,West,278,1.0,1.0,32,0.00,,,0.00,Wunderground v.1.15,2013-05-02 22:01:00,
2013-05-02 18:07:00,77.3,46.7,30.27,SSW,203,1.0,4.0,34,0.00,,,0.00,Wunderground v.1.15,2013-05-02 22:07:00,
2013-05-02 18:13:00,77.0,44.0,30.27,SSW,203,1.0,2.0,31,0.00,,,0.00,Wunderground v.1.15,2013-05-02 22:13:00,
2013-05-02 18:19:00,77.0,47.2,30.27,SSW,203,0.0,0.0,35,0.00,,,0.00,Wunderground v.1.15,2013-05-02 22:19:00,
2013-05-02 18:25:00,76.9,48.6,30.27,SSW,203,0.0,0.0,37,0.00,,,0.00,Wunderground v.1.15,2013-05-02 22:25:00,
2013-05-02 18:31:00,76.7,48.5,30.27,SSW,203,0.0,0.0,37,0.00,,,0.00,Wunderground v.1.15,2013-05-02 22:31:00,
2013-05-02 18:37:00,76.5,46.8,30.26,SW,220,0.0,2.0,35,0.00,,,0.00,Wunderground v.1.15,2013-05-02 22:37:00,
2013-05-02 18:43:00,76.3,48.8,30.26,SW,221,0.0,0.0,38,0.00,,,0.00,Wunderground v.1.15,2013-05-02 22:43:00,
2013-05-02 18:49:00,76.0,44.0,30.26,SW,224,0.0,0.0,32,0.00,,,0.00,Wunderground v.1.15,2013-05-02 22:49:00,
2013-05-02 18:55:00,75.8,46.2,30.26,SW,224,0.0,1.0,35,0.00,,,0.00,Wunderground v.1.15,2013-05-02 22:55:00,
2013-05-02 19:01:00,75.7,46.1,30.26,SW,225,0.0,0.0,35,0.00,,,0.00,Wunderground v.1.15,2013-05-02 23:01:00,
2013-05-02 19:07:00,75.4,48.7,30.26,SW,232,0.0,1.0,39,0.00,,,0.00,Wunderground v.1.15,2013-05-02 23:07:00,
2013-05-02 19:13:00,75.1,48.4,30.27,SW,234,0.0,0.0,39,0.00,,,0.00,Wunderground v.1.15,2013-05-02 23:13:00,
2013-05-02 19:19:00,74.7,48.8,30.27,SW,234,0.0,0.0,40,0.00,,,0.00,Wunderground v.1.15,2013-05-02 23:19:00,
2013-05-02 19:25:00,74.5,47.9,30.27,SW,234,0.0,0.0,39,0.00,,,0.00,Wunderground v.1.15,2013-05-02 23:25:00,
2013-05-02 19:31:00,74.1,47.6,30.27,SW,234,0.0,0.0,39,0.00,,,0.00,Wunderground v.1.15,2013-05-02 23:31:00,
2013-05-02 19:37:00,73.7,46.5,30.26,SW,234,0.0,0.0,38,0.00,,,0.00,Wunderground v.1.15,2013-05-02 23:37:00,
2013-05-02 19:43:00,73.4,48.9,30.26,SW,234,0.0,0.0,42,0.00,,,0.00,Wunderground v.1.15,2013-05-02 23:43:00,
2013-05-02 19:49:00,72.9,47.8,30.26,SW,234,0.0,0.0,41,0.00,,,0.00,Wunderground v.1.15,2013-05-02 23:49:00,
2013-05-02 19:55:00,72.1,47.7,30.27,SW,234,0.0,0.0,42,0.00,,,0.00,Wunderground v.1.15,2013-05-02 23:55:00,
2013-05-02 20:01:00,71.5,48.4,30.27,SW,234,0.0,0.0,44,0.00,,,0.00,Wunderground v.1.15,2013-05-03 00:01:00,
2013-05-02 20:07:00,71.1,49.8,30.27,SW,234,0.0,0.0,47,0.00,,,0.00,Wunderground v.1.15,2013-05-03 00:07:00,
2013-05-02 20:13:00,70.3,52.4,30.27,SW,234,0.0,0.0,53,0.00,,,0.00,Wunderground v.1.15,2013-05-03 00:13:00,
2013-05-02 20:19:00,68.9,50.0,30.27,SW,234,0.0,0.0,51,0.00,,,0.00,Wunderground v.1.15,2013-05-03 00:19:00,
2013-05-02 20:25:00,67.7,47.8,30.27,SW,234,0.0,1.0,49,0.00,,,0.00,Wunderground v.1.15,2013-05-03 00:25:00,
2013-05-02 20:31:00,67.2,50.0,30.27,NNE,26,1.0,3.0,54,0.00,,,0.00,Wunderground v.1.15,2013-05-03 00:31:00,
2013-05-02 20:37:00,67.2,45.7,30.27,NNE,33,3.0,5.0,46,0.00,,,0.00,Wunderground v.1.15,2013-05-03 00:37:00,
2013-05-02 20:43:00,67.6,45.5,30.27,NNE,33,3.0,4.0,45,0.00,,,0.00,Wunderground v.1.15,2013-05-03 00:43:00,
2013-05-02 20:49:00,67.9,45.8,30.28,NNE,30,3.0,3.0,45,0.00,,,0.00,Wunderground v.1.15,2013-05-03 00:49:00,
2013-05-02 20:55:00,68.0,44.7,30.28,NNE,30,3.0,4.0,43,0.00,,,0.00,Wunderground v.1.15,2013-05-03 00:55:00,
2013-05-02 21:01:00,68.1,44.7,30.28,NNE,32,3.0,5.0,43,0.00,,,0.00,Wunderground v.1.15,2013-05-03 01:01:00,
2013-05-02 21:07:00,68.0,44.7,30.27,NE,42,3.0,5.0,43,0.00,,,0.00,Wunderground v.1.15,2013-05-03 01:07:00,
2013-05-02 21:13:00,67.8,43.9,30.28,NE,35,3.0,5.0,42,0.00,,,0.00,Wunderground v.1.15,2013-05-03 01:13:00,
2013-05-02 21:19:00,67.8,43.9,30.28,NNE,22,4.0,4.0,42,0.00,,,0.00,Wunderground v.1.15,2013-05-03 01:19:00,
2013-05-02 21:25:00,67.8,43.2,30.28,NE,41,3.0,5.0,41,0.00,,,0.00,Wunderground v.1.15,2013-05-03 01:25:00,
2013-05-02 21:31:00,67.4,42.9,30.27,NE,34,3.0,4.0,41,0.00,,,0.00,Wunderground v.1.15,2013-05-03 01:31:00,
2013-05-02 21:37:00,67.2,43.3,30.27,NE,34,3.0,4.0,42,0.00,,,0.00,Wunderground v.1.15,2013-05-03 01:37:00,
2013-05-02 21:43:00,67.0,42.5,30.27,NNE,23,2.0,5.0,41,0.00,,,0.00,Wunderground v.1.15,2013-05-03 01:43:00,
2013-05-02 21:49:00,66.9,42.4,30.27,North,360,2.0,4.0,41,0.00,,,0.00,Wunderground v.1.15,2013-05-03 01:49:00,
2013-05-02 21:55:00,66.8,42.3,30.27,NNE,27,2.0,5.0,41,0.00,,,0.00,Wunderground v.1.15,2013-05-03 01:55:00,
2013-05-02 22:01:00,66.7,42.2,30.27,NE,37,1.0,2.0,41,0.00,,,0.00,Wunderground v.1.15,2013-05-03 02:01:00,
2013-05-02 22:07:00,66.5,43.3,30.27,NE,36,1.0,2.0,43,0.00,,,0.00,Wunderground v.1.15,2013-05-03 02:07:00,
2013-05-02 22:13:00,65.8,45.0,30.27,NE,36,0.0,1.0,47,0.00,,,0.00,Wunderground v.1.15,2013-05-03 02:13:00,
2013-05-02 22:19:00,65.1,45.5,30.26,NE,36,0.0,1.0,49,0.00,,,0.00,Wunderground v.1.15,2013-05-03 02:19:00,
2013-05-02 22:25:00,63.7,43.6,30.26,NE,36,0.0,0.0,48,0.00,,,0.00,Wunderground v.1.15,2013-05-03 02:25:00,
2013-05-02 22:31:00,62.9,42.9,30.26,NE,36,0.0,0.0,48,0.00,,,0.00,Wunderground v.1.15,2013-05-03 02:31:00,
2013-05-02 22:37:00,62.3,45.4,30.26,NE,36,0.0,0.0,54,0.00,,,0.00,Wunderground v.1.15,2013-05-03 02:37:00,
2013-05-02 22:43:00,61.4,45.1,30.26,NE,36,0.0,0.0,55,0.00,,,0.00,Wunderground v.1.15,2013-05-03 02:43:00,
2013-05-02 22:49:00,60.5,43.8,30.26,NE,36,0.0,0.0,54,0.00,,,0.00,Wunderground v.1.15,2013-05-03 02:49:00,
2013-05-02 22:55:00,59.9,42.7,30.26,NE,36,0.0,0.0,53,0.00,,,0.00,Wunderground v.1.15,2013-05-03 02:55:00,
2013-05-02 23:01:00,59.4,43.2,30.26,NE,36,0.0,0.0,55,0.00,,,0.00,Wunderground v.1.15,2013-05-03 03:01:00,
2013-05-02 23:07:00,58.7,43.0,30.26,NE,36,0.0,0.0,56,0.00,,,0.00,Wunderground v.1.15,2013-05-03 03:07:00,
2013-05-02 23:13:00,58.1,42.9,30.26,NE,36,0.0,0.0,57,0.00,,,0.00,Wunderground v.1.15,2013-05-03 03:13:00,
2013-05-02 23:19:00,57.7,43.9,30.26,NE,36,0.0,0.0,60,0.00,,,0.00,Wunderground v.1.15,2013-05-03 03:19:00,
2013-05-02 23:25:00,57.1,43.3,30.26,NE,36,0.0,0.0,60,0.00,,,0.00,Wunderground v.1.15,2013-05-03 03:25:00,
2013-05-02 23:31:00,56.6,43.7,30.26,NE,36,0.0,0.0,62,0.00,,,0.00,Wunderground v.1.15,2013-05-03 03:31:00,
2013-05-02 23:37:00,56.3,43.4,30.26,NE,36,0.0,0.0,62,0.00,,,0.00,Wunderground v.1.15,2013-05-03 03:37:00,
2013-05-02 23:43:00,56.1,44.9,30.26,NE,36,0.0,0.0,66,0.00,,,0.00,Wunderground v.1.15,2013-05-03 03:43:00,
2013-05-02 23:49:00,55.8,46.2,30.25,NE,36,0.0,0.0,70,0.00,,,0.00,Wunderground v.1.15,2013-05-03 03:49:00,
2013-05-02 23:55:00,55.2,44.8,30.25,NE,36,0.0,0.0,68,0.00,,,0.00,Wunderground v.1.15,2013-05-03 03:55:00,